Wind_Speed
9 10 11 12 12 13 13 16 17 17 13 10 7 4 2 2 3 5 7 9 10 11 12 13 15 16 18 19 21 23 25 26 26 30 34 34 35 27 31 25 27 36 38
13 13 14 15 15 16 18 18 19 17 15 13 11 10 9 9 9 8 7 8 9 10 11 13 14 16 17 18 20 22 24 25 24 24 29 21 28 24 21 35 38 32 37
17 15 15 16 15 16 17 17 17 17 18 17 14 12 11 11 10 10 10 10 10 11 12 14 16 18 20 22 23 24 25 27 28 24 18 16 17 37 34 30 34 29 31
18 16 16 15 14 16 15 15 15 16 17 15 13 11 12 11 12 10 10 9 11 14 16 19 21 23 25 26 27 27 28 29 30 30 25 27 31 23 33 24 29 31 27
19 17 15 15 15 13 12 13 13 14 14 13 13 12 12 12 9 9 10 13 17 20 22 25 27 28 28 28 28 28 27 27 28 27 27 29 29 26 25 40 29 33 29
21 18 16 14 13 12 11 10 11 13 12 11 12 12 11 11 11 14 17 21 24 28 30 31 31 31 31 30 30 29 28 27 27 27 26 24 21 22 25 33 41 39 39
24 20 17 15 13 11 9 9 9 11 11 11 11 12 12 13 16 19 22 25 28 30 30 30 30 30 29 28 28 28 28 28 28 26 26 25 24 29 27 29 34 34 38
23 20 17 14 12 11 9 7 8 9 8 9 11 11 12 15 18 21 25 26 27 28 28 28 27 27 27 27 28 29 29 29 28 28 28 30 31 30 27 26 29 36 34
25 21 18 15 14 11 9 6 6 6 6 8 9 11 14 18 22 24 25 26 26 27 26 25 24 24 25 27 29 31 32 32 33 33 33 33 32 28 26 25 25 27 28
24 22 19 17 15 11 8 6 4 3 4 7 9 12 17 20 23 24 25 25 24 23 22 23 24 26 28 30 32 33 34 34 35 33 34 32 30 28 26 26 28 25 26
24 22 19 17 15 12 9 6 2 2 3 6 10 15 18 21 23 24 23 22 22 22 23 25 26 28 31 33 34 35 36 37 35 34 33 29 23 34 35 32 30 32 32
22 20 19 18 16 12 9 6 2 1 4 8 14 18 20 22 22 21 21 21 21 22 24 26 29 31 33 35 36 37 36 35 34 33 26 28 31 35 30 31 30 31 28
19 20 20 18 15 13 9 6 3 2 7 13 18 21 23 22 21 21 21 22 23 24 26 29 32 34 35 36 36 36 36 34 33 30 30 35 33 33 32 30 31 28 33
20 20 20 18 16 13 10 6 2 4 11 16 21 24 24 22 21 21 21 22 24 27 29 31 33 34 36 36 36 36 35 34 33 31 34 32 30 30 32 32 32 34 36
18 20 20 19 17 14 10 5 1 8 14 18 20 22 20 21 21 21 22 24 27 29 31 34 35 36 36 36 36 33 33 34 35 36 34 32 31 30 30 32 38 37 38
14 17 19 19 18 13 8 4 4 10 15 17 18 18 21 21 21 22 25 27 29 32 34 36 37 37 36 35 34 33 32 31 32 35 34 32 33 31 32 35 34 34 38
9 15 18 18 15 11 8 4 7 12 16 16 17 18 20 21 22 24 27 30 33 36 37 36 36 37 36 36 35 30 28 31 31 31 34 37 33 34 37 36 36 37 36
4 11 16 16 13 11 7 6 10 14 15 17 18 18 20 22 24 27 29 32 35 37 37 37 36 38 38 36 32 28 29 32 30 31 32 33 35 38 35 39 36 42 51
2 7 12 13 12 9 5 7 12 16 16 17 17 19 22 24 27 29 32 34 36 37 38 38 39 39 39 35 30 29 32 34 33 33 34 31 39 37 36 36 40 48 48
2 8 12 12 10 6 6 10 14 16 16 16 18 20 23 25 28 31 33 34 36 38 39 40 39 37 37 34 28 29 32 36 37 36 32 35 36 37 30 38 44 46 46
6 9 10 9 7 6 9 12 14 15 16 17 19 20 23 27 29 32 33 35 37 39 40 41 39 37 33 31 29 30 32 34 38 41 40 40 39 30 36 41 42 38 41
9 10 10 8 7 8 10 12 13 15 16 18 20 23 25 28 31 33 34 35 38 39 40 41 39 35 31 31 30 30 29 31 36 39 43 43 40 42 41 40 36 36 36
10 10 9 7 6 10 12 13 14 15 17 20 23 25 28 31 32 34 35 37 37 37 38 36 35 35 38 35 31 30 31 33 36 39 36 38 43 40 38 40 37 33 35
10 8 7 7 8 11 12 11 13 16 19 22 25 28 32 34 33 33 34 35 35 34 31 32 33 36 37 36 37 37 39 37 39 36 42 43 36 31 36 40 37 36 35
8 7 7 7 8 9 9 12 15 17 20 24 28 31 32 33 35 35 34 34 31 25 28 31 31 33 34 35 33 35 37 37 35 41 42 38 33 37 39 39 37 38 39
7 7 8 7 7 8 10 13 16 19 23 28 31 31 32 34 35 36 37 32 29 26 25 24 25 29 28 31 34 34 33 32 37 37 35 34 33 36 39 40 41 42 42
Wind_Direction
108 101 100 94 91 90 83 73 70 67 69 74 85 89 84 13 336 342 339 332 333 332 332 328 325 323 323 325 325 322 321 320 324 320 318 313 311 314 309 308 303 300 301
130 117 110 107 97 89 78 70 63 61 58 55 57 63 65 67 63 55 37 22 9 1 355 348 340 333 329 327 326 328 326 324 329 322 321 315 309 310 306 301 302 297 301
140 129 118 104 96 86 74 67 63 59 57 56 61 68 73 83 83 64 49 33 14 359 348 340 335 332 330 329 329 328 329 326 322 320 315 316 302 308 302 295 296 302 296
144 135 123 113 98 82 75 68 65 63 66 70 74 75 77 67 59 45 30 9 358 353 347 342 337 334 331 328 327 325 322 320 321 317 312 302 303 309 308 299 292 293 293
149 140 132 124 110 98 80 69 64 67 68 63 62 59 55 54 42 24 8 1 355 349 345 341 338 335 334 331 329 327 325 322 321 321 318 314 309 309 303 308 306 299 296
153 152 144 135 123 109 95 82 70 72 67 58 52 44 37 29 12 4 356 353 348 343 339 336 335 334 333 333 332 331 329 327 323 321 319 318 315 311 308 306 306 305 304
163 162 156 148 135 127 110 93 79 78 67 47 37 31 22 11 3 357 351 344 340 337 334 334 334 335 335 335 336 335 333 331 327 323 317 314 310 310 308 304 301 300 302
169 165 162 157 153 142 128 107 89 74 58 39 28 20 10 4 357 351 346 342 339 336 335 337 337 338 338 338 337 336 335 334 331 327 323 317 315 315 309 304 306 304 304
173 171 171 170 165 156 145 130 101 72 47 27 18 7 2 355 350 345 342 338 336 335 333 334 336 338 339 338 338 337 336 332 331 327 325 325 324 322 314 310 304 308 307
175 176 177 176 170 168 162 147 120 71 34 16 6 1 355 350 347 342 337 334 330 331 334 337 339 341 341 339 337 334 331 328 327 325 324 323 322 319 316 305 305 303 306
180 180 179 177 178 176 173 172 155 52 21 7 359 353 351 348 342 337 334 334 334 336 338 339 340 340 338 336 333 331 328 326 326 326 325 320 317 318 317 312 307 304 304
184 185 185 185 183 184 186 187 190 358 3 357 354 350 346 342 339 337 335 335 336 338 339 340 340 338 337 335 332 328 328 328 326 324 320 317 318 320 317 314 310 305 306
188 192 191 190 191 194 196 201 210 329 359 358 355 349 343 338 338 337 336 337 337 338 339 339 338 337 335 332 330 329 327 326 323 321 316 318 319 318 316 316 315 312 312
200 199 195 196 198 200 205 205 224 357 357 355 353 350 344 338 338 337 336 336 340 339 338 338 336 335 334 332 331 329 326 323 321 319 318 317 317 316 317 316 314 314 312
206 206 202 201 203 206 204 202 301 351 349 348 348 347 345 338 333 333 338 340 339 338 338 337 336 336 334 332 330 326 323 321 320 320 319 318 318 317 314 313 314 312 310
210 207 205 205 205 203 202 208 313 335 340 343 341 344 343 332 334 339 340 338 337 336 336 336 335 332 331 329 327 325 322 320 319 320 322 319 320 320 315 315 313 309 310
191 202 205 204 202 201 203 247 316 335 336 333 332 332 338 334 338 338 337 336 336 335 334 333 333 331 331 331 330 326 322 316 318 319 319 321 319 317 320 319 311 312 312
215 207 202 199 197 201 220 291 331 336 334 331 332 337 336 335 337 337 337 335 334 333 333 333 333 332 333 333 331 327 321 320 320 319 318 315 319 321 318 311 314 316 313
253 203 196 195 198 210 254 314 332 333 328 331 336 335 334 337 337 336 336 335 332 331 332 333 334 333 333 335 332 329 325 323 320 319 319 319 321 318 312 316 322 318 313
215 191 190 196 201 226 284 316 326 323 327 332 334 334 334 334 335 335 334 333 331 331 331 331 332 334 332 335 333 330 326 321 319 321 321 320 319 316 318 322 321 313 313
188 189 193 199 218 262 304 320 322 321 328 330 330 331 333 334 334 333 333 332 331 329 329 329 333 334 337 334 331 329 325 321 320 323 322 319 317 314 322 319 315 314 314
204 200 203 215 250 296 317 318 318 321 324 327 330 331 332 332 332 331 332 331 330 329 331 331 331 336 335 329 328 326 323 322 321 319 319 320 319 319 318 320 321 316 314
205 206 217 241 279 301 304 313 316 321 326 327 328 329 330 331 332 332 331 329 331 331 331 332 333 331 328 327 327 325 324 323 321 318 319 318 316 313 313 323 321 321 323
216 223 240 272 290 301 308 313 319 324 325 326 327 330 331 332 331 330 329 330 332 332 331 329 322 323 324 326 330 327 326 325 323 328 324 318 318 315 318 323 326 325 323
218 239 259 274 288 298 310 318 319 322 325 326 329 331 330 330 329 330 331 331 334 331 322 317 319 319 320 323 322 323 323 322 325 323 320 325 327 323 326 326 325 326 327
235 244 276 279 287 300 315 318 322 325 326 329 331 331 329 330 329 328 328 332 337 330 322 318 317 317 316 320 321 321 322 323 323 322 325 329 323 324 323 324 324 327 329
Height
1489 1489 1489 1488 1487 1487 1486 1484 1483 1483 1485 1485 1486 1487 1487 1488 1489 1489 1490 1490 1489 1489 1487 1486 1484 1482 1479 1476 1473 1469 1465 1462 1458 1452 1447 1442 1439 1437 1435 1432 1429 1427 1424
1488 1489 1489 1489 1489 1488 1487 1485 1485 1486 1486 1485 1486 1486 1487 1488 1489 1489 1489 1489 1488 1487 1486 1484 1482 1480 1478 1475 1471 1466 1461 1459 1456 1451 1445 1436 1433 1432 1429 1426 1423 1419 1417
1486 1489 1489 1489 1491 1490 1488 1487 1487 1487 1487 1487 1488 1488 1488 1489 1490 1490 1489 1488 1488 1487 1485 1483 1481 1478 1474 1470 1466 1462 1458 1453 1452 1450 1447 1437 1429 1423 1422 1419 1416 1412 1409
1485 1488 1488 1490 1492 1492 1491 1490 1489 1489 1489 1490 1491 1491 1490 1490 1490 1490 1489 1488 1487 1485 1483 1481 1478 1474 1471 1467 1463 1459 1456 1451 1447 1444 1444 1440 1433 1424 1405 1411 1408 1406 1402
1484 1486 1489 1490 1491 1493 1493 1492 1491 1490 1490 1491 1492 1492 1491 1491 1491 1491 1490 1488 1486 1483 1481 1477 1474 1470 1466 1463 1459 1455 1452 1448 1443 1439 1434 1431 1427 1423 1417 1394 1397 1397 1394
1482 1486 1489 1491 1492 1493 1494 1494 1493 1492 1493 1492 1493 1492 1492 1492 1491 1489 1487 1485 1482 1480 1476 1473 1469 1465 1461 1457 1453 1449 1446 1442 1438 1434 1430 1426 1422 1418 1414 1405 1392 1387 1383
1479 1484 1488 1490 1492 1493 1494 1494 1494 1493 1493 1493 1492 1491 1491 1490 1489 1487 1485 1483 1480 1476 1472 1468 1465 1461 1457 1453 1449 1445 1441 1437 1433 1429 1424 1421 1417 1413 1408 1401 1390 1383 1375
1479 1483 1487 1490 1492 1493 1494 1494 1494 1493 1492 1492 1491 1491 1491 1489 1487 1485 1482 1479 1476 1473 1469 1465 1461 1457 1454 1449 1445 1441 1436 1431 1427 1423 1419 1415 1411 1406 1401 1396 1389 1377 1370
1477 1482 1486 1489 1491 1493 1493 1493 1493 1491 1491 1491 1490 1490 1489 1488 1486 1483 1480 1477 1473 1470 1466 1462 1459 1455 1451 1446 1440 1436 1431 1426 1421 1417 1412 1408 1403 1398 1394 1390 1385 1379 1367
1477 1480 1484 1488 1490 1491 1491 1492 1492 1490 1490 1490 1490 1489 1487 1485 1483 1480 1477 1474 1470 1467 1463 1459 1455 1451 1446 1441 1436 1431 1426 1420 1416 1411 1406 1401 1397 1392 1388 1383 1378 1374 1368
1475 1479 1483 1486 1487 1488 1490 1490 1490 1490 1489 1489 1488 1487 1484 1482 1479 1477 1474 1470 1467 1463 1459 1454 1450 1446 1441 1437 1431 1426 1420 1414 1408 1404 1398 1394 1390 1384 1379 1374 1370 1364 1360
1475 1478 1480 1483 1485 1486 1488 1488 1488 1489 1488 1487 1485 1483 1481 1479 1476 1473 1470 1466 1463 1459 1455 1451 1446 1441 1437 1431 1425 1419 1413 1407 1402 1397 1392 1387 1381 1375 1370 1365 1359 1355 1350
1474 1476 1478 1481 1483 1485 1486 1486 1487 1487 1486 1484 1482 1480 1478 1475 1472 1469 1466 1462 1459 1455 1451 1446 1441 1436 1431 1425 1420 1413 1407 1402 1397 1392 1386 1379 1374 1368 1364 1358 1352 1347 1342
1471 1473 1476 1478 1481 1483 1484 1484 1485 1484 1483 1481 1479 1477 1475 1471 1468 1465 1462 1458 1454 1450 1446 1442 1437 1431 1426 1419 1413 1407 1401 1396 1390 1384 1379 1373 1368 1363 1357 1352 1346 1340 1333
1468 1470 1473 1476 1478 1480 1481 1482 1482 1481 1480 1477 1476 1474 1470 1467 1465 1461 1458 1454 1450 1446 1441 1436 1431 1425 1420 1414 1407 1401 1395 1388 1382 1377 1372 1367 1362 1357 1353 1347 1339 1333 1325
1465 1467 1470 1473 1475 1478 1479 1480 1479 1478 1476 1474 1473 1470 1467 1464 1461 1456 1453 1449 1445 1441 1435 1430 1425 1420 1414 1408 1402 1396 1388 1382 1376 1370 1364 1360 1355 1350 1345 1339 1333 1327 1319
1462 1464 1467 1470 1473 1476 1477 1477 1477 1475 1473 1472 1469 1466 1463 1460 1456 1453 1449 1444 1439 1434 1430 1425 1420 1414 1408 1401 1395 1389 1383 1377 1371 1365 1359 1352 1348 1343 1335 1328 1323 1316 1310
1460 1462 1465 1468 1471 1473 1474 1474 1474 1472 1470 1468 1465 1462 1460 1456 1452 1448 1444 1439 1434 1429 1424 1419 1414 1407 1400 1394 1388 1383 1378 1371 1365 1360 1354 1347 1340 1335 1329 1320 1311 1306 1299
1459 1461 1464 1467 1469 1471 1471 1472 1471 1469 1467 1465 1462 1459 1456 1452 1448 1444 1439 1434 1429 1424 1418 1413 1407 1401 1394 1389 1383 1379 1372 1364 1358 1353 1348 1341 1334 1329 1323 1314 1304 1295 1286
1458 1460 1463 1465 1467 1468 1469 1468 1466 1466 1463 1461 1458 1456 1452 1449 1444 1440 1435 1430 1424 1418 1412 1406 1401 1395 1388 1382 1379 1374 1367 1359 1352 1347 1340 1335 1329 1322 1314 1308 1299 1287 1277
1459 1461 1462 1464 1465 1466 1465 1464 1463 1462 1460 1458 1455 1453 1449 1445 1440 1435 1430 1424 1418 1413 1407 1399 1393 1388 1383 1377 1374 1369 1363 1355 1347 1340 1332 1327 1320 1312 1307 1302 1293 1282 1273
1459 1460 1462 1463 1463 1462 1462 1461 1460 1458 1456 1454 1451 1448 1445 1441 1435 1429 1425 1419 1414 1407 1400 1392 1386 1382 1377 1373 1368 1364 1358 1352 1344 1335 1327 1319 1312 1306 1299 1291 1284 1276 1267
1457 1458 1459 1460 1459 1459 1458 1457 1456 1454 1452 1450 1447 1444 1440 1435 1430 1424 1419 1414 1408 1402 1395 1388 1381 1375 1372 1367 1362 1357 1352 1346 1339 1331 1322 1314 1306 1298 1290 1284 1276 1268 1258
1454 1455 1456 1456 1456 1456 1455 1454 1452 1450 1448 1445 1443 1439 1434 1428 1425 1421 1416 1409 1403 1396 1391 1385 1380 1373 1367 1362 1356 1350 1344 1338 1331 1323 1315 1307 1299 1292 1285 1275 1267 1260 1253
1451 1452 1453 1453 1453 1452 1451 1450 1448 1446 1443 1441 1437 1432 1428 1424 1419 1415 1409 1404 1399 1395 1389 1384 1378 1370 1363 1358 1354 1347 1340 1333 1325 1317 1308 1299 1292 1285 1276 1269 1261 1253 1246
1448 1450 1451 1451 1450 1449 1448 1446 1444 1442 1439 1435 1430 1426 1423 1418 1414 1408 1402 1399 1394 1389 1385 1380 1375 1368 1362 1355 1349 1342 1335 1328 1321 1312 1304 1296 1289 1281 1273 1264 1255 1247 1240